Location: Nitta Yuma
(33.0242°N, 90.8483°W)
Time: 07:59:32
(UTC+00:00)

Envisat - Visible Passes

Search period start: 23 April 2021 00:00
Search period end: 03 May 2021 00:00
Orbit: 764 x 766 km, 98.1° (Epoch: 22 April)

Date Brightness Start Highest point End Pass type
(mag) Time Alt. Az. Time Alt. Az. Time Alt. Az.
23 Apr 6.2 10:12:26 10° ENE 10:13:48 11° E 10:15:10 10° ESE visible
25 Apr 5.6 10:35:33 10° NE 10:39:23 21° E 10:43:12 10° SE visible
28 Apr 5.8 10:24:43 10° NE 10:27:52 16° E 10:30:59 10° SE visible
30 Apr 5.1 10:48:57 10° NE 10:53:24 30° E 10:57:50 10° SSE visible
01 May 6.0 10:14:18 10° ENE 10:16:18 12° E 10:18:19 10° ESE visible
